Regional Weather Roundup
Issued by NWS Midland/Odessa, TX

Skip options and go directly to product.
Home | Oldest Version | Previous Version | Current Version | All | Text Only | Save Text | Print | Product List | Glossary On

Skip product version selection by date and time.   
996
ASUS44 KMAF 202302
RWRMAF
MIDLAND AREA WEATHER ROUNDUP
NATIONAL WEATHER SERVICE MIDLAND TX
500 PM CST THU NOV 20 2014

...IN SOUTHWEST TEXAS AND SOUTHEAST NEW MEXICO...

CITY           SKY/WX    TMP DP  RH WIND       PRES   REMARKS
ALPINE         CLEAR     68  19  15 W9        30.09R
ANDREWS        FAIR      68  13  12 SW7       29.96S
ARTESIA        NOT AVBL
BIG SPRING     CLEAR     72  23  16 S10       29.97R
CARLSBAD       CLEAR     71  14  11 W10       29.93S
DRYDEN           N/A     67  40  37 SE10      29.96R
FORT STOCKTON  CLEAR     73  22  14 NW10      29.96S
GUAD PASS      NOT AVBL
HOBBS          CLEAR     66   7   9 SW6       29.96
MARFA          SUNNY     64  18  16 W12       30.08R
MIDLAND AIRPK  CLEAR     71  24  17 SW6       29.96S
MIDLAND INTL   CLEAR     69  26  20 SW7       29.95S
ODESSA         CLEAR     70  16  12 SW7       29.96S
PECOS          CLEAR     73  24  16 W13       29.93F
PRESIDIO       FAIR      72  31  21 SW3       29.99S
SEMINOLE       CLEAR     69  12  11 SW7       29.96R
SNYDER         CLEAR     69  32  25 SW9       29.94R
WINK           CLEAR     72  18  13 W6        29.93S
$$
...OTHER STATIONS IN TEXAS...

CITY           SKY/WX    TMP DP  RH WIND       PRES   REMARKS
ABILENE        CLEAR     71  41  33 SW12      29.94S
AMARILLO       CLEAR     53  26  35 NE6       29.98R
AUSTIN         MOCLDY    65  63  93 S6        30.02R
BROWNSVILLE    CLOUDY    71  67  87 SE10      30.02S
CORPUS CHRISTI CLOUDY    70  65  84 SE14      30.03R
DALLAS FTW     PTCLDY    68  47  46 S9        29.98S
DEL RIO        CLEAR     70  52  52 SE8       29.96S
EL PASO        SUNNY     68  14  12 W14       30.00F
HOUSTON INT    MOCLDY    67  55  65 SE13      30.08R
LUBBOCK        CLEAR     66  16  14 NW8       29.93R
SAN ANGELO     CLEAR     71  41  33 SW14      29.95S
SAN ANTONIO    CLOUDY    65  61  87 S3        30.02F
WACO           CLEAR     68  56  65 S12       30.01R
WICHITA FALLS  NOT AVBL
$$
...OTHER LOCATIONS IN NEW MEXICO...

CITY           SKY/WX    TMP DP  RH WIND       PRES   REMARKS
ALAMAGORDO     SUNNY     63   5  10 W3        30.02S
ALBUQUERQUE    PTCLDY    57   4  12 CALM      30.02F
CANNON AFB     CLEAR     63   7  11 SW3       29.94R
CLOVIS         CLEAR     63  18  17 NE6       29.94R
HOLLOMAN AFB   NOT AVBL
ROSWELL        CLEAR     69  13  11 SE8       29.93S
RUIDOSO        CLEAR     54  10  17 NW14G21   30.08S
SANTA FE       CLEAR     52   4  14 N3        30.03S
TRUTH OR CONSE SUNNY     64  10  12 SE7       29.99S
TUCUMCARI      CLEAR     59  21  23 E8        29.93S
$$

USA.gov is the U.S. government's official web portal to all federal, state and local government web resources and services.